When you browse on this site, cookies collect data to enhance your experience and personalize the content and advertising you see.
Visit our Privacy Policy to learn more. By continuing to use the site, you agree to this use of cookies and data.
  • In United Kingdom
  • List of Countries
  • For 7 days
  • Water Temperature
  • Weather Map
  • Weather Widgets
  • user-avatar
    Login

    Hourly Weather Kesälahti

    Today, 15 September, Sunday

    Time Temperature Precipitation Wind Pressure Humidity
    00:00 +7°C° 0 mm 3 mps 750 mmHg 83%
    01:00 +5°C° 0 mm 3 mps 750 mmHg 86%
    02:00 +6°C° 0 mm 2 mps 749 mmHg 89%
    03:00 +6°C° 0 mm 2 mps 749 mmHg 90%
    04:00 +6°C° 0 mm 2 mps 748 mmHg 92%
    05:00 +5°C° 0 mm 2 mps 748 mmHg 93%
    06:00 +6°C° 0 mm 2 mps 747 mmHg 89%
    07:00 +7°C° 0 mm 3 mps 746 mmHg 86%
    08:00 +8°C° 0 mm 3 mps 745 mmHg 82%
    09:00 +8°C° 0.1 mm 4 mps 744 mmHg 78%
    10:00 +8°C° 0.1 mm 5 mps 743 mmHg 75%
    11:00 +9°C° 0.1 mm 6 mps 741 mmHg 71%
    12:00 +8°C° 0.9 mm 7 mps 740 mmHg 78%
    13:00 +8°C° 0.9 mm 7 mps 738 mmHg 85%
    14:00 +6°C° 0.9 mm 8 mps 736 mmHg 92%
    15:00 +6°C° 1.8 mm 8 mps 735 mmHg 93%
    16:00 +8°C° 1.8 mm 7 mps 733 mmHg 94%
    17:00 +8°C° 1.8 mm 7 mps 731 mmHg 94%
    18:00 +8°C° 1.5 mm 6 mps 731 mmHg 93%
    19:00 +8°C° 1.5 mm 6 mps 730 mmHg 92%
    20:00 +8°C° 1.5 mm 5 mps 729 mmHg 91%
    21:00 +8°C° 0.2 mm 5 mps 729 mmHg 91%
    22:00 +8°C° 0.2 mm 5 mps 729 mmHg 91%
    23:00 +8°C° 0.2 mm 5 mps 729 mmHg 91%

    Tomorrow, 16 September, Monday

    Time Temperature Precipitation Wind Pressure Humidity
    00:00 +8°C° 0.2 mm 5 mps 729 mmHg 91%
    01:00 +7°C° 0.2 mm 5 mps 729 mmHg 91%
    02:00 +7°C° 0.2 mm 5 mps 729 mmHg 91%
    03:00 +7°C° 0.5 mm 5 mps 729 mmHg 91%
    04:00 +7°C° 0.5 mm 5 mps 728 mmHg 91%
    05:00 +7°C° 0.5 mm 4 mps 728 mmHg 91%
    06:00 +7°C° 0.5 mm 4 mps 728 mmHg 92%
    07:00 +8°C° 0.5 mm 3 mps 728 mmHg 93%
    08:00 +8°C° 0.5 mm 3 mps 728 mmHg 94%
    09:00 +8°C° 0.5 mm 2 mps 729 mmHg 94%
    10:00 +8°C° 0.5 mm 2 mps 729 mmHg 93%
    11:00 +9°C° 0.5 mm 2 mps 730 mmHg 93%
    12:00 +9°C° 0.3 mm 3 mps 730 mmHg 92%
    13:00 +8°C° 0.3 mm 4 mps 731 mmHg 90%
    14:00 +9°C° 0.3 mm 5 mps 731 mmHg 88%
    15:00 +8°C° 0.2 mm 5 mps 732 mmHg 88%
    16:00 +8°C° 0.2 mm 5 mps 732 mmHg 88%
    17:00 +7°C° 0.2 mm 5 mps 732 mmHg 88%
    18:00 +7°C° 0 mm 5 mps 733 mmHg 86%
    19:00 +6°C° 0 mm 4 mps 733 mmHg 84%
    20:00 +6°C° 0 mm 4 mps 734 mmHg 81%
    21:00 +6°C° 0 mm 4 mps 734 mmHg 84%
    22:00 +5°C° 0 mm 3 mps 734 mmHg 88%
    23:00 +5°C° 0 mm 3 mps 735 mmHg 91%

    Day after tomorrow, 17 September, Tuesday

    Time Temperature Precipitation Wind Pressure Humidity
    00:00 +5°C° 0.2 mm 3 mps 735 mmHg 91%
    01:00 +7°C° 0.2 mm 3 mps 735 mmHg 92%
    02:00 +7°C° 0.2 mm 3 mps 735 mmHg 92%
    03:00 +7°C° 0.2 mm 3 mps 735 mmHg 93%
    04:00 +5°C° 0.2 mm 3 mps 735 mmHg 93%
    05:00 +5°C° 0.2 mm 3 mps 735 mmHg 94%
    06:00 +5°C° 0 mm 3 mps 736 mmHg 91%
    07:00 +6°C° 0 mm 4 mps 736 mmHg 89%
    08:00 +6°C° 0 mm 4 mps 736 mmHg 86%
    09:00 +7°C° 0 mm 3 mps 736 mmHg 83%
    10:00 +8°C° 0 mm 3 mps 737 mmHg 79%
    11:00 +8°C° 0 mm 3 mps 737 mmHg 76%
    12:00 +8°C° 0.1 mm 3 mps 737 mmHg 74%
    13:00 +9°C° 0.1 mm 3 mps 737 mmHg 72%
    14:00 +8°C° 0.1 mm 4 mps 738 mmHg 70%
    15:00 +9°C° 0 mm 3 mps 738 mmHg 71%
    16:00 +8°C° 0 mm 3 mps 738 mmHg 71%
    17:00 +8°C° 0 mm 3 mps 738 mmHg 71%
    18:00 +7°C° 0 mm 3 mps 739 mmHg 75%
    19:00 +5°C° 0 mm 3 mps 739 mmHg 79%
    20:00 +4°C° 0 mm 3 mps 739 mmHg 82%
    21:00 +4°C° 0 mm 3 mps 740 mmHg 84%
    22:00 +3°C° 0 mm 3 mps 740 mmHg 85%
    23:00 +3°C° 0 mm 3 mps 740 mmHg 86%

    18 September, Wednesday

    Time Temperature Precipitation Wind Pressure Humidity
    00:00 +2°C° 0 mm 3 mps 741 mmHg 88%
    01:00 +2°C° 0 mm 3 mps 741 mmHg 90%
    02:00 +2°C° 0 mm 2 mps 741 mmHg 92%
    03:00 +1°C° 0 mm 3 mps 741 mmHg 91%
    04:00 +1°C° 0 mm 3 mps 742 mmHg 90%
    05:00 +1°C° 0 mm 3 mps 742 mmHg 89%
    06:00 +2°C° 0 mm 3 mps 742 mmHg 83%
    07:00 +2°C° 0 mm 3 mps 743 mmHg 78%
    08:00 +3°C° 0 mm 4 mps 743 mmHg 73%
    09:00 +4°C° 0 mm 4 mps 743 mmHg 67%
    10:00 +5°C° 0 mm 4 mps 744 mmHg 61%
    11:00 +6°C° 0 mm 4 mps 744 mmHg 54%
    12:00 +6°C° 0 mm 4 mps 744 mmHg 52%
    13:00 +7°C° 0 mm 5 mps 744 mmHg 49%
    14:00 +7°C° 0 mm 5 mps 745 mmHg 47%
    15:00 +7°C° 0 mm 4 mps 745 mmHg 48%
    16:00 +6°C° 0 mm 4 mps 745 mmHg 50%
    17:00 +6°C° 0 mm 4 mps 745 mmHg 51%
    18:00 +5°C° 0 mm 4 mps 745 mmHg 55%
    19:00 +4°C° 0 mm 4 mps 746 mmHg 58%
    20:00 +3°C° 0 mm 4 mps 746 mmHg 61%
    21:00 +3°C° 0 mm 4 mps 746 mmHg 63%
    22:00 +1°C° 0 mm 4 mps 747 mmHg 66%
    23:00 +1°C° 0 mm 4 mps 747 mmHg 68%

    19 September, Thursday

    Time Temperature Precipitation Wind Pressure Humidity
    00:00 +1°C° 0 mm 4 mps 747 mmHg 70%
    01:00 +2°C° 0 mm 3 mps 747 mmHg 72%
    02:00 +1°C° 0 mm 3 mps 747 mmHg 73%
    03:00 0°C° 0 mm 4 mps 748 mmHg 75%
    04:00 0°C° 0 mm 4 mps 748 mmHg 76%
    05:00 0°C° 0 mm 4 mps 748 mmHg 77%
    06:00 +1°C° 0 mm 4 mps 748 mmHg 75%
    07:00 +2°C° 0 mm 5 mps 748 mmHg 74%
    08:00 +2°C° 0 mm 5 mps 748 mmHg 72%
    09:00 +2°C° 0 mm 5 mps 749 mmHg 71%
    10:00 +3°C° 0 mm 5 mps 749 mmHg 70%
    11:00 +3°C° 0 mm 5 mps 749 mmHg 69%
    12:00 +3°C° 0 mm 5 mps 750 mmHg 67%
    13:00 +3°C° 0 mm 5 mps 750 mmHg 66%
    14:00 +3°C° 0 mm 5 mps 750 mmHg 65%
    15:00 +3°C° 0 mm 5 mps 750 mmHg 64%
    16:00 +3°C° 0 mm 5 mps 750 mmHg 63%
    17:00 +3°C° 0 mm 5 mps 750 mmHg 62%
    18:00 +3°C° 0 mm 5 mps 751 mmHg 64%
    19:00 +2°C° 0 mm 5 mps 751 mmHg 66%
    20:00 +3°C° 0 mm 4 mps 751 mmHg 68%
    21:00 +1°C° 0 mm 4 mps 752 mmHg 69%
    22:00 +1°C° 0 mm 4 mps 752 mmHg 69%
    23:00 +1°C° 0 mm 4 mps 752 mmHg 70%

    20 September, Friday

    Time Temperature Precipitation Wind Pressure Humidity
    00:00 +1°C° 0 mm 4 mps 752 mmHg 72%
    01:00 0°C° 0 mm 4 mps 752 mmHg 74%
    02:00 0°C° 0 mm 4 mps 752 mmHg 76%
    03:00 0°C° 0 mm 4 mps 752 mmHg 77%
    04:00 0°C° 0 mm 4 mps 752 mmHg 77%
    05:00 0°C° 0 mm 4 mps 753 mmHg 78%
    06:00 0°C° 0 mm 5 mps 753 mmHg 74%
    07:00 +1°C° 0 mm 5 mps 753 mmHg 71%
    08:00 +2°C° 0 mm 5 mps 753 mmHg 67%
    09:00 +3°C° 0 mm 4 mps 753 mmHg 62%
    10:00 +4°C° 0 mm 4 mps 752 mmHg 57%
    11:00 +5°C° 0 mm 4 mps 752 mmHg 53%
    12:00 +5°C° 0 mm 4 mps 752 mmHg 51%
    13:00 +7°C° 0 mm 3 mps 751 mmHg 49%
    14:00 +7°C° 0 mm 3 mps 751 mmHg 47%
    15:00 +7°C° 0 mm 3 mps 751 mmHg 50%
    16:00 +6°C° 0 mm 2 mps 750 mmHg 52%
    17:00 +7°C° 0 mm 1 mps 750 mmHg 54%
    18:00 +5°C° 0 mm 2 mps 749 mmHg 59%
    19:00 +4°C° 0 mm 2 mps 749 mmHg 63%
    20:00 +3°C° 0 mm 3 mps 748 mmHg 68%
    21:00 +3°C° 0.1 mm 3 mps 747 mmHg 71%
    22:00 +3°C° 0.1 mm 3 mps 746 mmHg 75%
    23:00 +3°C° 0.1 mm 3 mps 745 mmHg 78%
    Show more